When you browse on this site, cookies collect data to enhance your experience and personalize the content and advertising you see.
Visit our Privacy Policy to learn more. By continuing to use the site, you agree to this use of cookies and data.
  • In Portugal
  • List of Countries
  • For 7 days
  • Water Temperature
  • Weather Map
  • Weather Widgets
  • user-avatar
    Login

    Hourly Weather Kufa

    Today, 23 September, Monday

    Time Temperature Precipitation Wind Pressure Humidity
    00:00 +6°C° 0 mm 2 mps 644 mmHg 58%
    01:00 +6°C° 0 mm 2 mps 644 mmHg 58%
    02:00 +6°C° 0 mm 2 mps 644 mmHg 57%
    03:00 +6°C° 0 mm 2 mps 644 mmHg 57%
    04:00 +6°C° 0 mm 2 mps 644 mmHg 56%
    05:00 +7°C° 0 mm 1 mps 644 mmHg 55%
    06:00 +8°C° 0 mm 1 mps 644 mmHg 53%
    07:00 +10°C° 0 mm 1 mps 644 mmHg 51%
    08:00 +12°C° 0 mm 2 mps 645 mmHg 49%
    09:00 +14°C° 0 mm 2 mps 646 mmHg 45%
    10:00 +15°C° 0 mm 2 mps 646 mmHg 45%
    11:00 +16°C° 0 mm 2 mps 646 mmHg 45%
    12:00 +17°C° 0 mm 3 mps 646 mmHg 45%
    13:00 +17°C° 0 mm 2 mps 645 mmHg 46%
    14:00 +17°C° 0 mm 2 mps 645 mmHg 46%
    15:00 +16°C° 0 mm 2 mps 645 mmHg 46%
    16:00 +14°C° 0 mm 2 mps 644 mmHg 56%
    17:00 +12°C° 0 mm 1 mps 643 mmHg 65%
    18:00 +9°C° 0 mm 1 mps 643 mmHg 74%
    19:00 +9°C° 0 mm 1 mps 643 mmHg 69%
    20:00 +9°C° 0 mm 1 mps 643 mmHg 64%
    21:00 +9°C° 0 mm 1 mps 644 mmHg 59%
    22:00 +9°C° 0 mm 1 mps 643 mmHg 59%
    23:00 +8°C° 0 mm 1 mps 643 mmHg 59%

    Tomorrow, 24 September, Tuesday

    Time Temperature Precipitation Wind Pressure Humidity
    00:00 +8°C° 0 mm 1 mps 643 mmHg 60%
    01:00 +8°C° 0 mm 1 mps 643 mmHg 60%
    02:00 +8°C° 0 mm 1 mps 643 mmHg 60%
    03:00 +7°C° 0 mm 2 mps 643 mmHg 60%
    04:00 +9°C° 0 mm 1 mps 643 mmHg 61%
    05:00 +9°C° 0 mm 1 mps 643 mmHg 62%
    06:00 +9°C° 0 mm 1 mps 643 mmHg 62%
    07:00 +10°C° 0 mm 2 mps 644 mmHg 59%
    08:00 +13°C° 0 mm 2 mps 645 mmHg 55%
    09:00 +16°C° 0 mm 2 mps 646 mmHg 52%
    10:00 +16°C° 0 mm 2 mps 646 mmHg 51%
    11:00 +17°C° 0 mm 3 mps 646 mmHg 50%
    12:00 +18°C° 0 mm 3 mps 645 mmHg 49%
    13:00 +18°C° 0 mm 3 mps 645 mmHg 50%
    14:00 +18°C° 0 mm 3 mps 645 mmHg 50%
    15:00 +18°C° 0 mm 2 mps 645 mmHg 51%
    16:00 +16°C° 0 mm 2 mps 644 mmHg 59%
    17:00 +14°C° 0 mm 1 mps 643 mmHg 68%
    18:00 +11°C° 0 mm 1 mps 642 mmHg 77%
    19:00 +11°C° 0 mm 1 mps 642 mmHg 72%
    20:00 +11°C° 0 mm 1 mps 643 mmHg 67%
    21:00 +11°C° 0 mm 1 mps 643 mmHg 61%
    22:00 +11°C° 0 mm 1 mps 643 mmHg 63%
    23:00 +10°C° 0 mm 2 mps 642 mmHg 64%

    Day after tomorrow, 25 September, Wednesday

    Time Temperature Precipitation Wind Pressure Humidity
    00:00 +10°C° 0 mm 2 mps 642 mmHg 65%
    01:00 +10°C° 0 mm 2 mps 642 mmHg 65%
    02:00 +10°C° 0 mm 2 mps 642 mmHg 65%
    03:00 +10°C° 0 mm 2 mps 642 mmHg 65%
    04:00 +10°C° 0 mm 2 mps 642 mmHg 64%
    05:00 +10°C° 0 mm 2 mps 642 mmHg 62%
    06:00 +10°C° 0 mm 2 mps 642 mmHg 60%
    07:00 +13°C° 0 mm 2 mps 643 mmHg 54%
    08:00 +16°C° 0 mm 2 mps 644 mmHg 48%
    09:00 +18°C° 0 mm 2 mps 645 mmHg 42%
    10:00 +19°C° 0 mm 2 mps 645 mmHg 43%
    11:00 +20°C° 0 mm 3 mps 645 mmHg 44%
    12:00 +20°C° 0 mm 3 mps 645 mmHg 44%
    13:00 +20°C° 0 mm 3 mps 645 mmHg 45%
    14:00 +20°C° 0 mm 3 mps 645 mmHg 45%
    15:00 +20°C° 0 mm 3 mps 645 mmHg 46%
    16:00 +18°C° 0 mm 2 mps 644 mmHg 54%
    17:00 +16°C° 0 mm 2 mps 644 mmHg 63%
    18:00 +14°C° 0 mm 2 mps 643 mmHg 72%
    19:00 +13°C° 0 mm 1 mps 643 mmHg 71%
    20:00 +13°C° 0 mm 1 mps 644 mmHg 70%
    21:00 +12°C° 0 mm 1 mps 644 mmHg 69%
    22:00 +12°C° 0 mm 1 mps 644 mmHg 67%
    23:00 +13°C° 0 mm 1 mps 644 mmHg 65%

    26 September, Thursday

    Time Temperature Precipitation Wind Pressure Humidity
    00:00 +13°C° 0 mm 1 mps 644 mmHg 63%
    01:00 +12°C° 0 mm 1 mps 644 mmHg 63%
    02:00 +12°C° 0 mm 1 mps 644 mmHg 64%
    03:00 +12°C° 0 mm 1 mps 644 mmHg 64%
    04:00 +12°C° 0 mm 1 mps 644 mmHg 65%
    05:00 +12°C° 0 mm 2 mps 643 mmHg 66%
    06:00 +12°C° 0 mm 2 mps 643 mmHg 67%
    07:00 +14°C° 0 mm 2 mps 644 mmHg 62%
    08:00 +17°C° 0 mm 2 mps 645 mmHg 57%
    09:00 +19°C° 0 mm 2 mps 646 mmHg 51%
    10:00 +20°C° 0 mm 3 mps 646 mmHg 49%
    11:00 +21°C° 0 mm 3 mps 646 mmHg 46%
    12:00 +21°C° 0 mm 4 mps 646 mmHg 43%
    13:00 +21°C° 0 mm 4 mps 645 mmHg 43%
    14:00 +21°C° 0 mm 3 mps 645 mmHg 42%
    15:00 +21°C° 0 mm 3 mps 645 mmHg 41%
    16:00 +19°C° 0 mm 3 mps 644 mmHg 49%
    17:00 +17°C° 0 mm 2 mps 643 mmHg 56%
    18:00 +15°C° 0 mm 1 mps 643 mmHg 63%
    19:00 +15°C° 0 mm 1 mps 643 mmHg 64%
    20:00 +14°C° 0 mm 1 mps 643 mmHg 65%
    21:00 +14°C° 0 mm 1 mps 643 mmHg 67%
    22:00 +14°C° 0 mm 1 mps 643 mmHg 70%
    23:00 +13°C° 0 mm 1 mps 643 mmHg 73%

    27 September, Friday

    Time Temperature Precipitation Wind Pressure Humidity
    00:00 +13°C° 0 mm 2 mps 643 mmHg 76%
    01:00 +13°C° 0 mm 2 mps 643 mmHg 76%
    02:00 +13°C° 0 mm 2 mps 643 mmHg 76%
    03:00 +13°C° 0 mm 1 mps 643 mmHg 76%
    04:00 +13°C° 0 mm 1 mps 643 mmHg 75%
    05:00 +13°C° 0 mm 1 mps 643 mmHg 74%
    06:00 +12°C° 0 mm 2 mps 643 mmHg 73%
    07:00 +15°C° 0 mm 2 mps 644 mmHg 68%
    08:00 +17°C° 0 mm 2 mps 644 mmHg 62%
    09:00 +19°C° 0 mm 2 mps 645 mmHg 57%
    10:00 +20°C° 0 mm 2 mps 645 mmHg 54%
    11:00 +21°C° 0 mm 3 mps 645 mmHg 52%
    12:00 +22°C° 0 mm 3 mps 645 mmHg 50%
    13:00 +21°C° 0 mm 3 mps 645 mmHg 50%
    14:00 +21°C° 0 mm 3 mps 645 mmHg 50%
    15:00 +21°C° 0 mm 3 mps 644 mmHg 50%
    16:00 +19°C° 0 mm 2 mps 644 mmHg 57%
    17:00 +18°C° 0 mm 2 mps 643 mmHg 65%
    18:00 +16°C° 0 mm 1 mps 643 mmHg 72%
    19:00 +15°C° 0 mm 1 mps 643 mmHg 72%
    20:00 +15°C° 0 mm 1 mps 643 mmHg 71%
    21:00 +15°C° 0 mm 1 mps 643 mmHg 71%
    22:00 +15°C° 0 mm 1 mps 643 mmHg 73%
    23:00 +14°C° 0 mm 1 mps 643 mmHg 76%

    28 September, Saturday

    Time Temperature Precipitation Wind Pressure Humidity
    00:00 +14°C° 0 mm 1 mps 642 mmHg 79%
    01:00 +14°C° 0 mm 1 mps 642 mmHg 79%
    02:00 +14°C° 0 mm 1 mps 642 mmHg 79%
    03:00 +14°C° 0 mm 2 mps 642 mmHg 79%
    04:00 +14°C° 0 mm 2 mps 641 mmHg 78%
    05:00 +13°C° 0 mm 2 mps 641 mmHg 77%
    06:00 +13°C° 0 mm 2 mps 641 mmHg 77%
    07:00 +15°C° 0 mm 2 mps 641 mmHg 69%
    08:00 +18°C° 0 mm 3 mps 642 mmHg 62%
    09:00 +20°C° 0 mm 3 mps 643 mmHg 54%
    10:00 +20°C° 0.1 mm 3 mps 643 mmHg 56%
    11:00 +20°C° 0.1 mm 3 mps 643 mmHg 59%
    12:00 +19°C° 0.1 mm 4 mps 643 mmHg 61%
    13:00 +18°C° 0.2 mm 3 mps 643 mmHg 67%
    14:00 +17°C° 0.2 mm 3 mps 643 mmHg 73%
    15:00 +16°C° 0.2 mm 2 mps 642 mmHg 79%
    16:00 +15°C° 0.1 mm 2 mps 642 mmHg 81%
    17:00 +14°C° 0.1 mm 1 mps 642 mmHg 83%
    18:00 +13°C° 0.1 mm 1 mps 642 mmHg 84%
    19:00 +12°C° 0 mm 1 mps 642 mmHg 84%
    20:00 +12°C° 0 mm 1 mps 643 mmHg 84%
    21:00 +12°C° 0 mm 1 mps 643 mmHg 84%
    22:00 +11°C° 0 mm 1 mps 643 mmHg 85%
    23:00 +11°C° 0 mm 1 mps 643 mmHg 86%
    Show more